Location: ???????
(55.4362°N, 38.1183°E)
Time: 22:12:54
(UTC+00:00)

BEESAT - Visible Passes

Search period start: 05 December 2021 00:00
Search period end: 15 December 2021 00:00
Orbit: 700 x 707 km, 98.6° (Epoch: 05 December)

Date Brightness Start Highest point End Pass type
(mag) Time Alt. Az. Time Alt. Az. Time Alt. Az.
05 Dec ? 02:21:13 10° E 02:24:31 19° NE 02:27:50 10° N visible
05 Dec ? 03:56:51 10° SSE 04:01:38 85° ENE 04:06:28 10° NNW visible
06 Dec ? 03:02:59 10° SE 03:07:17 34° ENE 03:11:36 10° N visible
06 Dec ? 04:40:22 10° S 04:44:56 45° W 04:49:33 10° NNW visible
07 Dec ? 02:10:24 10° E 02:13:18 16° NE 02:16:12 10° NNE visible
07 Dec ? 03:45:32 10° SSE 03:50:17 70° ENE 03:55:04 10° NNW visible
08 Dec ? 02:51:55 10° ESE 02:56:00 29° ENE 03:00:07 10° N visible
08 Dec ? 04:28:49 10° S 04:33:31 56° WSW 04:38:15 10° NNW visible
09 Dec ? 01:59:42 10° ENE 02:02:06 14° NE 02:04:29 10° NNE visible
09 Dec ? 03:34:15 10° SE 03:38:55 57° ENE 03:43:38 10° N visible
10 Dec ? 02:40:53 10° ESE 02:44:44 25° NE 02:48:35 10° N visible
10 Dec ? 04:17:19 10° S 04:22:05 69° WSW 04:26:54 10° NNW visible
11 Dec ? 01:49:11 10° ENE 01:50:54 12° NE 01:52:38 10° NNE visible
11 Dec ? 03:23:01 10° SE 03:27:35 47° ENE 03:32:11 10° N visible
12 Dec ? 02:29:56 10° E 02:33:28 21° NE 02:37:02 10° N visible
12 Dec ? 04:05:54 10° SSE 04:10:41 84° WSW 04:15:32 10° NNW visible
13 Dec ? 01:39:21 10° NE 01:39:43 10° NE 01:40:06 10° NE visible
13 Dec ? 03:11:51 10° SE 03:16:16 39° ENE 03:20:44 10° N visible
13 Dec ? 04:49:33 10° SSW 04:54:02 39° W 04:58:33 10° NNW visible
14 Dec ? 02:19:04 10° E 02:22:14 18° NE 02:25:26 10° N visible
14 Dec ? 03:54:31 10° SSE 03:59:18 80° ENE 04:04:08 10° NNW visible
